Weather in Verkhniy Reutets

Russia / Kursk Oblast     51°20′46″N   36°00′24″E
temp.,
°C
wind,
m/s
gust,
m/s
humid.,
%
clouds,
%
prec.,
mm/h
press.,
hPa
HPBL,
m
27 november, sat
sat2700:00−1sse51292100 0.0 1015297
03:00−1sse61496100 0.0 1012335
06:00+1se71891100 0.0 1010438
09:00+2sse91889100 0.0 1007660
12:00+3se91992100 1.6 1004687
15:00+4s91895100 2.2 1003654
18:00+5s71596100 0.1 1003458
21:00+6s51198100 0.1 1004348
28 november, sun
sun2800:00+5s4119888 0.0 1004286
03:00+6ssw4895100 0.0 1005342
06:00+4sw359831 0.0 1006106
09:00+3ssw239715 0.0 100743
12:00+6ssw34869 0.0 1008248
15:00+7s348836 0.0 1009269
18:00+6sse5888100 0.0 1009367
21:00+5se41196100 0.0 1009209
29 november, mon
mon2900:00+5se41195100 0.0 1008235
03:00+6sse41095100 0.0 1006243
06:00+7se41199100 0.3 1004302
09:00+7se51198100 0.7 1002382
12:00+9sse61498100 0.4 999588
15:00+10sse71390100 0.8 995637
18:00+10s71696100 3.4 991844
21:00+10ssw71493100 7.6 988915
30 november, tue
tue3000:00+11ssw101884100 10.2 9841102
03:00+6wsw101685100 10.8 9881024
06:00+3wsw101471100 0.0 9921082
09:00+3wsw101564100 0.0 9941308
12:00+4sw915625 0.0 9951156
15:00+3sw9156782 0.0 9941273
18:00+2sw9156865 0.0 9941347
21:00+1sw9147892 0.1 9941106
1 december, wed
wed100:00−1wsw71294100 0.3 995903
03:00−1wsw61185100 0.4 998832
06:00−2w71176100 0.1 999905
09:00−2w6108392 0.1 1000758
12:00−2wsw6977100 0.1 1001844
15:00−1sw51094100 0.8 1000753
18:00−1sw5109689 0.9 1000666
21:000wsw6119396 1.2 1001649